GIA1105 WIMM-OEMA

Flight info

Callsign GIA1105
Flight time N/A
Altitude 32000
Route MAIMU DCT MEMAK N563 REXOD L883 UMILA N569 TOKRA DCT ITRUX Y511 ELONU
Aircraft B77W/H-SDE1E2E3FGHIJ2J3J4J5M1RWXY/LB1D1

Departure

Time 2026-04-24 11:24
Airport Kualanamu International Airport (WIMM)

Arrival

Time N/A
Airport Prince Mohammad Bin Abdulaziz Airport (OEMA)
Time Latitude Longitude Altitude Speed Heading
2026-04-24 10:07 3.63779 98.87968 39 ft 0 kts 223°
2026-04-24 10:57 3.63781 98.87971 39 ft 2 kts 223°
2026-04-24 10:57 3.63792 98.87981 39 ft 2 kts 223°
2026-04-24 10:58 3.63803 98.87991 39 ft 2 kts 223°
2026-04-24 10:58 3.63814 98.88002 39 ft 2 kts 239°
2026-04-24 10:58 3.63818 98.88016 39 ft 2 kts 273°
2026-04-24 10:58 3.63814 98.88030 39 ft 2 kts 302°
2026-04-24 10:59 3.63809 98.88036 39 ft 1 kts 317°
2026-04-24 10:59 3.63807 98.88039 39 ft 0 kts 316°
2026-04-24 11:03 3.63813 98.88033 39 ft 2 kts 316°
2026-04-24 11:03 3.63835 98.88012 39 ft 6 kts 316°
2026-04-24 11:03 3.63872 98.87975 39 ft 8 kts 315°
2026-04-24 11:03 3.63901 98.87958 39 ft 3 kts
2026-04-24 11:04 3.63927 98.87968 39 ft 4 kts 31°
2026-04-24 11:04 3.63961 98.87996 39 ft 3 kts 43°
2026-04-24 11:04 3.63976 98.88010 39 ft 2 kts 43°
2026-04-24 11:04 3.63986 98.88020 39 ft 2 kts 44°
2026-04-24 11:05 3.64008 98.88041 39 ft 5 kts 45°
2026-04-24 11:05 3.64042 98.88075 39 ft 8 kts 45°
2026-04-24 11:05 3.64071 98.88103 39 ft 4 kts 45°
2026-04-24 11:05 3.64091 98.88122 39 ft 5 kts 41°
2026-04-24 11:06 3.64124 98.88136 39 ft 4 kts 353°
2026-04-24 11:06 3.64153 98.88118 39 ft 6 kts 321°
2026-04-24 11:06 3.64194 98.88081 39 ft 9 kts 315°
2026-04-24 11:06 3.64241 98.88034 39 ft 9 kts 315°
2026-04-24 11:07 3.64293 98.87974 39 ft 5 kts 292°
2026-04-24 11:07 3.64280 98.87929 39 ft 9 kts 231°
2026-04-24 11:07 3.64221 98.87870 39 ft 14 kts 224°
2026-04-24 11:08 3.64147 98.87797 39 ft 15 kts 224°
2026-04-24 11:08 3.64059 98.87711 39 ft 19 kts 225°
2026-04-24 11:08 3.63956 98.87607 39 ft 22 kts 225°
2026-04-24 11:08 3.63855 98.87503 39 ft 19 kts 225°
2026-04-24 11:09 3.63763 98.87414 39 ft 17 kts 224°
2026-04-24 11:09 3.63685 98.87336 39 ft 14 kts 224°
2026-04-24 11:09 3.63624 98.87277 39 ft 7 kts 225°
2026-04-24 11:09 3.63618 98.87238 39 ft 5 kts 292°
2026-04-24 11:10 3.63635 98.87209 39 ft 4 kts 299°
2026-04-24 11:10 3.63641 98.87176 39 ft 7 kts 257°
2026-04-24 11:10 3.63597 98.87118 39 ft 13 kts 225°
2026-04-24 11:10 3.63536 98.87057 39 ft 11 kts 225°
2026-04-24 11:11 3.63483 98.87004 39 ft 9 kts 225°
2026-04-24 11:11 3.63438 98.86959 39 ft 8 kts 225°
2026-04-24 11:11 3.63397 98.86918 39 ft 9 kts 225°
2026-04-24 11:11 3.63329 98.86852 39 ft 18 kts 224°
2026-04-24 11:12 3.63227 98.86752 39 ft 20 kts 225°
2026-04-24 11:12 3.63135 98.86659 39 ft 17 kts 226°
2026-04-24 11:12 3.63054 98.86578 39 ft 15 kts 224°
2026-04-24 11:12 3.62983 98.86508 39 ft 13 kts 225°
2026-04-24 11:13 3.62921 98.86447 39 ft 11 kts 225°
2026-04-24 11:13 3.62868 98.86395 39 ft 9 kts 225°
2026-04-24 11:13 3.62819 98.86346 39 ft 10 kts 225°
2026-04-24 11:13 3.62762 98.86289 39 ft 12 kts 225°
2026-04-24 11:14 3.62697 98.86224 39 ft 11 kts 225°
2026-04-24 11:14 3.62667 98.86193 39 ft 2 kts 225°
2026-04-24 11:14 3.62655 98.86182 39 ft 1 kts 225°
2026-04-24 11:14 3.62641 98.86167 39 ft 4 kts 225°
2026-04-24 11:15 3.62623 98.86150 39 ft 0 kts 225°
2026-04-24 11:15 3.62622 98.86149 39 ft 0 kts 225°
2026-04-24 11:16 3.62621 98.86147 39 ft 0 kts 225°
2026-04-24 11:16 3.62617 98.86144 39 ft 2 kts 225°
2026-04-24 11:16 3.62594 98.86121 39 ft 6 kts 225°
2026-04-24 11:16 3.62566 98.86092 39 ft 5 kts 225°
2026-04-24 11:17 3.62543 98.86069 40 ft 4 kts 225°
2026-04-24 11:17 3.62534 98.86060 39 ft 0 kts 225°
2026-04-24 11:18 3.62533 98.86060 39 ft 0 kts 225°
2026-04-24 11:18 3.62526 98.86052 39 ft 2 kts 225°
2026-04-24 11:19 3.62506 98.86027 39 ft 6 kts 244°
2026-04-24 11:19 3.62507 98.85975 39 ft 7 kts 294°
2026-04-24 11:19 3.62513 98.85964 40 ft 0 kts 302°
2026-04-24 11:21 3.62524 98.85950 39 ft 6 kts 312°
2026-04-24 11:21 3.62553 98.85920 39 ft 5 kts 313°
2026-04-24 11:21 3.62577 98.85895 39 ft 4 kts 317°
2026-04-24 11:21 3.62599 98.85888 39 ft 2 kts 11°
2026-04-24 11:22 3.62624 98.85902 39 ft 6 kts 37°
2026-04-24 11:22 3.62652 98.85927 39 ft 1 kts 44°
2026-04-24 11:22 3.62654 98.85929 40 ft 0 kts 44°
2026-04-24 11:22 3.62655 98.85930 40 ft 0 kts 44°
2026-04-24 11:23 3.62712 98.85986 39 ft 36 kts 45°
2026-04-24 11:23 3.63050 98.86322 40 ft 100 kts 45°
2026-04-24 11:23 3.63692 98.86961 39 ft 157 kts 45°
2026-04-24 11:23 3.64581 98.87850 85 ft 200 kts 45°
2026-04-24 11:24 3.65591 98.88849 622 ft 208 kts 44°
2026-04-24 11:24 3.66751 98.89732 1353 ft 212 kts 25°
2026-04-24 11:24 3.68221 98.90099 1596 ft 230 kts
2026-04-24 11:24 3.69836 98.89724 1770 ft 252 kts 330°
2026-04-24 11:25 3.71155 98.88477 2167 ft 266 kts 304°
2026-04-24 11:25 3.72150 98.86932 2917 ft 267 kts 302°
2026-04-24 11:25 3.73137 98.85351 3596 ft 271 kts 302°
2026-04-24 11:25 3.74133 98.83752 4271 ft 274 kts 302°
2026-04-24 11:26 3.75138 98.82138 4939 ft 277 kts 302°
2026-04-24 11:26 3.76156 98.80503 5596 ft 280 kts 302°
2026-04-24 11:26 3.77187 98.78848 6197 ft 283 kts 302°
2026-04-24 11:26 3.78234 98.77167 6779 ft 286 kts 302°
2026-04-24 11:27 3.79291 98.75469 7352 ft 290 kts 302°
2026-04-24 11:27 3.80367 98.73741 7918 ft 293 kts 302°
2026-04-24 11:27 3.81448 98.72003 8642 ft 294 kts 301°
2026-04-24 11:27 3.82347 98.70187 9413 ft 295 kts 292°
2026-04-24 11:28 3.83095 98.68276 10224 ft 295 kts 291°
2026-04-24 11:28 3.83834 98.66340 10815 ft 307 kts 291°
2026-04-24 11:28 3.84630 98.64269 10922 ft 327 kts 291°
2026-04-24 11:28 3.85475 98.62083 10933 ft 349 kts 291°
2026-04-24 11:29 3.86386 98.59730 10956 ft 371 kts 291°
2026-04-24 11:29 3.87340 98.57267 10981 ft 392 kts 291°
2026-04-24 11:29 3.88338 98.54691 11356 ft 403 kts 291°
2026-04-24 11:29 3.89359 98.52050 12077 ft 405 kts 291°
2026-04-24 11:30 3.90373 98.49432 12774 ft 407 kts 291°
2026-04-24 11:30 3.91394 98.46795 13398 ft 412 kts 291°
2026-04-24 11:30 3.92431 98.44116 14030 ft 416 kts 291°
2026-04-24 11:30 3.93489 98.41382 14633 ft 422 kts 291°
2026-04-24 11:31 3.94549 98.38644 15266 ft 426 kts 291°
2026-04-24 11:31 3.95626 98.35861 15887 ft 430 kts 291°
2026-04-24 11:31 3.96714 98.33049 16465 ft 435 kts 291°
2026-04-24 11:31 3.97814 98.30205 17020 ft 440 kts 291°
2026-04-24 11:32 3.98922 98.27343 17559 ft 445 kts 291°
2026-04-24 11:32 4.00042 98.24451 18157 ft 449 kts 291°
2026-04-24 11:32 4.01184 98.21500 18740 ft 452 kts 291°
2026-04-24 11:32 4.02322 98.18565 19326 ft 455 kts 291°
2026-04-24 11:33 4.03468 98.15603 19887 ft 458 kts 291°
2026-04-24 11:33 4.04623 98.12620 20446 ft 461 kts 291°
2026-04-24 11:33 4.05776 98.09641 20973 ft 465 kts 291°
2026-04-24 11:33 4.06945 98.06620 21469 ft 469 kts 291°
2026-04-24 11:34 4.08135 98.03543 21976 ft 472 kts 291°
2026-04-24 11:34 4.09325 98.00467 22445 ft 476 kts 290°
2026-04-24 11:34 4.10525 97.97364 22915 ft 480 kts 290°
2026-04-24 11:34 4.11729 97.94257 23375 ft 484 kts 291°
2026-04-24 11:35 4.12955 97.91091 23884 ft 486 kts 290°
2026-04-24 11:35 4.14174 97.87947 24378 ft 488 kts 290°
2026-04-24 11:35 4.15398 97.84789 24838 ft 491 kts 291°
2026-04-24 11:35 4.16646 97.81568 25302 ft 494 kts 291°
2026-04-24 11:36 4.17888 97.78363 25738 ft 497 kts 291°
2026-04-24 11:36 4.19130 97.75157 26191 ft 500 kts 291°
2026-04-24 11:36 4.20400 97.71881 26619 ft 503 kts 291°
2026-04-24 11:36 4.21656 97.68640 27034 ft 506 kts 291°
2026-04-24 11:37 4.22946 97.65312 27462 ft 509 kts 291°
2026-04-24 11:37 4.24220 97.62026 27861 ft 512 kts 291°
2026-04-24 11:37 4.25507 97.58706 28266 ft 515 kts 291°
2026-04-24 11:37 4.26812 97.55336 28702 ft 517 kts 291°
2026-04-24 11:38 4.28111 97.51983 29130 ft 520 kts 291°
2026-04-24 11:38 4.29413 97.48620 29663 ft 520 kts 291°
2026-04-24 11:38 4.30661 97.45399 30274 ft 517 kts 291°
2026-04-24 11:38 4.31942 97.42090 30941 ft 514 kts 291°
2026-04-24 11:39 4.33239 97.38740 31572 ft 512 kts 291°
2026-04-24 11:39 4.34521 97.35429 32016 ft 512 kts 291°
2026-04-24 11:39 4.37092 97.28785 32083 ft 511 kts 291°
2026-04-24 11:40 4.39513 97.22089 32111 ft 510 kts 284°
2026-04-24 11:40 4.40252 97.15057 32108 ft 511 kts 266°
2026-04-24 11:41 4.39494 97.08025 32120 ft 510 kts 262°
2026-04-24 11:41 4.38615 97.00957 32136 ft 511 kts 262°
2026-04-24 11:42 4.37734 96.93920 32146 ft 510 kts 262°
2026-04-24 11:42 4.36850 96.86876 32153 ft 509 kts 262°
2026-04-24 11:43 4.35974 96.79897 32147 ft 508 kts 263°
2026-04-24 11:43 4.36203 96.72795 32148 ft 510 kts 281°
2026-04-24 11:44 4.38446 96.66075 32103 ft 510 kts 294°
2026-04-24 11:44 4.41376 96.59598 32063 ft 510 kts 295°
2026-04-24 11:45 4.44321 96.53122 32044 ft 511 kts 295°
2026-04-24 11:45 4.47253 96.46676 32026 ft 509 kts 295°
2026-04-24 11:46 4.50194 96.40210 32005 ft 510 kts 295°
2026-04-24 11:46 4.53139 96.33735 31970 ft 510 kts 295°
2026-04-24 11:47 4.56070 96.27288 31936 ft 511 kts 295°
2026-04-24 11:47 4.59014 96.20812 31922 ft 510 kts 295°
2026-04-24 11:48 4.61949 96.14354 31932 ft 509 kts 295°
2026-04-24 11:48 4.64889 96.07885 31933 ft 510 kts 295°
2026-04-24 11:49 4.67818 96.01437 31947 ft 511 kts 295°
2026-04-24 11:49 4.70758 95.94961 31945 ft 510 kts 295°
2026-04-24 11:50 4.73698 95.88486 31931 ft 510 kts 295°
2026-04-24 11:50 4.76629 95.82029 31925 ft 509 kts 295°
2026-04-24 11:51 4.79546 95.75600 31931 ft 509 kts 295°
2026-04-24 11:51 4.82474 95.69144 31925 ft 509 kts 295°
2026-04-24 11:52 4.85410 95.62670 31930 ft 509 kts 295°
2026-04-24 11:52 4.88336 95.56214 31926 ft 509 kts 295°
2026-04-24 11:53 4.91249 95.49786 31914 ft 509 kts 295°
2026-04-24 11:53 4.94175 95.43328 31901 ft 508 kts 295°
2026-04-24 11:54 4.97089 95.36894 31886 ft 507 kts 295°
2026-04-24 11:54 5.00007 95.30450 31868 ft 507 kts 295°
2026-04-24 11:55 5.02926 95.24002 31850 ft 509 kts 295°
2026-04-24 11:55 5.05844 95.17551 31832 ft 509 kts 295°
2026-04-24 11:56 5.08761 95.11105 31830 ft 508 kts 295°
2026-04-24 11:56 5.11682 95.04645 31825 ft 508 kts 295°
2026-04-24 11:57 5.14582 94.98229 31825 ft 507 kts 295°
2026-04-24 11:57 5.17493 94.91790 31831 ft 508 kts 295°
2026-04-24 11:58 5.20423 94.85304 31831 ft 509 kts 295°
2026-04-24 11:58 5.23344 94.78836 31829 ft 509 kts 295°
2026-04-24 11:59 5.26252 94.72396 31831 ft 509 kts 295°
2026-04-24 11:59 5.29160 94.65952 31832 ft 508 kts 295°
2026-04-24 12:00 5.32079 94.59485 31830 ft 508 kts 295°
2026-04-24 12:00 5.34998 94.53013 31830 ft 508 kts 295°
2026-04-24 12:01 5.37896 94.46585 31830 ft 509 kts 295°
2026-04-24 12:01 5.40816 94.40108 31828 ft 510 kts 295°
2026-04-24 12:02 5.43734 94.33633 31828 ft 510 kts 295°
2026-04-24 12:02 5.46654 94.27150 31827 ft 510 kts 295°
2026-04-24 12:03 5.49565 94.20687 31829 ft 510 kts 295°
2026-04-24 12:03 5.52496 94.14176 31828 ft 509 kts 295°
2026-04-24 12:04 5.55402 94.07719 31827 ft 509 kts 295°
2026-04-24 12:04 5.58317 94.01240 31828 ft 509 kts 295°
2026-04-24 12:05 5.61212 93.94801 31828 ft 510 kts 295°
2026-04-24 12:05 5.64139 93.88290 31828 ft 509 kts 295°
2026-04-24 12:06 5.67037 93.81841 31828 ft 510 kts 295°
2026-04-24 12:06 5.69954 93.75349 31827 ft 509 kts 295°
2026-04-24 12:07 5.72864 93.68869 31828 ft 509 kts 295°
2026-04-24 12:07 5.75764 93.62409 31828 ft 510 kts 295°
2026-04-24 12:08 5.78682 93.55906 31828 ft 510 kts 295°
2026-04-24 12:08 5.81586 93.49433 31828 ft 512 kts 295°
2026-04-24 12:09 5.84501 93.42934 31829 ft 511 kts 295°
2026-04-24 12:09 5.87416 93.36430 31827 ft 512 kts 295°
2026-04-24 12:10 5.90339 93.29908 31822 ft 512 kts 295°
2026-04-24 12:11 5.94723 93.20120 31835 ft 511 kts 295°
2026-04-24 12:11 5.97627 93.13633 31842 ft 512 kts 295°
2026-04-24 12:12 6.00547 93.07114 31835 ft 513 kts 295°
2026-04-24 12:12 6.03512 93.00614 31827 ft 513 kts 295°
2026-04-24 12:13 6.06478 92.94117 31828 ft 513 kts 295°
2026-04-24 12:13 6.09473 92.87550 31830 ft 514 kts 295°
2026-04-24 12:14 6.12423 92.81078 31832 ft 512 kts 295°
2026-04-24 12:14 6.15388 92.74568 31828 ft 512 kts 295°
2026-04-24 12:15 6.18341 92.68083 31829 ft 511 kts 295°
2026-04-24 12:15 6.21305 92.61570 31829 ft 512 kts 295°
2026-04-24 12:16 6.24266 92.55061 31828 ft 512 kts 295°
2026-04-24 12:16 6.27221 92.48563 31829 ft 513 kts 295°
2026-04-24 12:17 6.30189 92.42036 31828 ft 511 kts 295°
2026-04-24 12:17 6.33132 92.35559 31829 ft 511 kts 295°
2026-04-24 12:18 6.36081 92.29067 31826 ft 511 kts 295°
2026-04-24 12:18 6.39019 92.22594 31825 ft 510 kts 295°
2026-04-24 12:19 6.41958 92.16121 31826 ft 512 kts 295°
2026-04-24 12:19 6.44911 92.09610 31826 ft 512 kts 295°
2026-04-24 12:20 6.47851 92.03126 31827 ft 511 kts 295°
2026-04-24 12:20 6.50804 91.96611 31825 ft 510 kts 295°
2026-04-24 12:21 6.53737 91.90138 31829 ft 510 kts 295°
2026-04-24 12:21 6.56678 91.83646 31826 ft 511 kts 295°
2026-04-24 12:22 6.59617 91.77155 31826 ft 511 kts 295°
2026-04-24 12:22 6.62542 91.70692 31824 ft 510 kts 295°
2026-04-24 12:23 6.65479 91.64201 31826 ft 510 kts 295°
2026-04-24 12:23 6.68414 91.57711 31829 ft 510 kts 295°
2026-04-24 12:24 6.71361 91.51191 31831 ft 510 kts 295°
2026-04-24 12:24 6.74296 91.44694 31829 ft 510 kts 295°
2026-04-24 12:25 6.77233 91.38193 31829 ft 510 kts 295°
2026-04-24 12:25 6.80166 91.31699 31829 ft 510 kts 295°
2026-04-24 12:26 6.83080 91.25240 31839 ft 509 kts 295°
2026-04-24 12:26 6.86001 91.18764 31847 ft 510 kts 295°
2026-04-24 12:27 6.88931 91.12266 31848 ft 510 kts 295°
2026-04-24 12:27 6.91850 91.05789 31848 ft 510 kts 295°
2026-04-24 12:28 6.94777 90.99294 31850 ft 509 kts 295°
2026-04-24 12:28 6.97711 90.92781 31848 ft 509 kts 295°
2026-04-24 12:29 7.00624 90.86307 31849 ft 510 kts 295°